FW2617 Weather Reports


time (UTC)temp
C
wind
direction
speed
KPH
gust
KPH
rain 1hr
cm
rain 24hr
cm
rain mn
cm
humidity
%
barometer
mb
20260505124503 21 187 11.3 27.4 0.00 0.00 0.00 90 1002.2
20260505123624 21 179 9.7 25.7 0.00 0.00 0.00 90 1002.1
20260505122704 21 181 11.3 25.7 0.00 0.00 0.00 90 1002.0
20260505121825 21 179 9.7 22.5 0.00 0.00 0.00 90 1002.1
20260505120904 20 180 9.7 29.0 0.00 0.00 0.00 90 1001.9
20260505120024 20 177 9.7 19.3 0.00 0.00 0.00 90 1001.7
20260505115403 20 180 9.7 29.0 0.00 0.00 0.00 90 1001.8
20260505114503 20 185 11.3 29.0 0.00 0.00 0.00 90 1001.8
20260505113624 20 176 11.3 29.0 0.00 0.00 0.00 90 1001.8
20260505112703 20 178 11.3 24.1 0.00 0.00 0.00 90 1001.6
20260505111803 20 178 9.7 24.1 0.00 0.00 0.00 90 1001.7
20260505110903 20 180 11.3 25.7 0.00 0.00 0.00 90 1001.5
20260505101803 21 172 11.3 25.7 0.00 0.00 0.00 89 1001.7
20260505100925 21 181 11.3 22.5 0.00 0.00 0.00 89 1001.7
20260505100003 21 179 11.3 25.7 0.00 0.00 0.00 89 1001.9
20260505095404 21 180 11.3 25.7 0.00 0.00 0.00 88 1001.8
20260505094503 21 186 12.9 25.7 0.00 0.00 0.00 88 1001.8
20260505093603 21 182 12.9 25.7 0.00 0.00 0.00 88 1002.0
20260505092724 21 180 12.9 35.4 0.00 0.00 0.00 88 1001.9
20260505091803 21 183 16.1 29.0 0.00 0.00 0.00 87 1002.1
20260505090903 21 184 14.5 27.4 0.00 0.00 0.00 87 1002.1
20260505090004 21 184 12.9 27.4 0.00 0.00 0.00 88 1002.2
20260505085403 21 179 12.9 30.6 0.00 0.00 0.00 88 1002.2
20260505084504 21 185 12.9 29.0 0.00 0.00 0.00 88 1002.0
20260505083603 21 181 11.3 22.5 0.00 0.00 0.00 88 1002.0
20260505082704 21 175 14.5 37.0 0.00 0.00 0.00 88 1002.0
20260505081803 21 177 14.5 27.4 0.00 0.00 0.00 88 1002.2
20260505080903 21 177 12.9 24.1 0.00 0.00 0.00 88 1002.2
20260505080004 21 173 12.9 25.7 0.00 0.00 0.00 87 1002.2
20260505075403 21 171 12.9 27.4 0.00 0.00 0.00 87 1002.5
20260505074524 21 166 12.9 29.0 0.00 0.00 0.00 87 1002.5
20260505073603 21 174 12.9 29.0 0.00 0.00 0.00 86 1002.7
20260505072703 21 174 12.9 24.1 0.00 0.00 0.00 86 1002.8
20260505071804 21 170 11.3 25.7 0.00 0.00 0.00 86 1002.9
20260505070903 21 170 14.5 25.7 0.00 0.00 0.00 85 1003.1
20260505070004 21 173 12.9 37.0 0.00 0.00 0.00 85 1003.3
20260505065424 21 171 12.9 24.1 0.00 0.00 0.00 84 1003.2
20260505064503 22 173 12.9 30.6 0.00 0.00 0.00 84 1003.3
20260505063603 22 176 12.9 25.7 0.00 0.00 0.00 83 1003.6
20260505062704 22 171 12.9 24.1 0.00 0.00 0.00 83 1003.5
20260505061803 22 171 12.9 30.6 0.00 0.00 0.00 82 1003.6
20260505060903 22 167 12.9 25.7 0.00 0.00 0.00 82 1003.6
20260505060024 22 172 11.3 27.4 0.00 0.00 0.00 81 1003.6
20260505055424 22 169 11.3 27.4 0.00 0.00 0.00 81 1003.5
20260505054524 22 167 12.9 32.2 0.00 0.00 0.00 80 1003.6
20260505053603 22 167 11.3 27.4 0.00 0.00 0.00 79 1003.4
20260505052724 22 168 11.3 24.1 0.00 0.00 0.00 79 1003.6
20260505051803 22 169 12.9 32.2 0.00 0.00 0.00 78 1003.8
20260505050925 22 168 12.9 29.0 0.00 0.00 0.00 77 1003.8
20260505040903 23 171 12.9 25.7 0.00 0.00 0.00 75 1004.2
20260505040004 23 167 12.9 27.4 0.00 0.00 0.00 74 1004.1
20260505035403 23 171 12.9 38.6 0.00 0.00 0.00 74 1004.1
20260505034504 23 171 12.9 25.7 0.00 0.00 0.00 74 1004.3
20260505033603 23 168 11.3 32.2 0.00 0.00 0.00 74 1003.9
20260505032703 23 167 9.7 27.4 0.00 0.00 0.00 74 1003.9
20260505031803 23 170 12.9 29.0 0.00 0.00 0.00 74 1004.0
20260505030903 23 168 11.3 25.7 0.00 0.00 0.00 74 1004.1
20260505030004 23 170 9.7 24.1 0.00 0.00 0.00 74 1004.1
20260505025403 23 165 11.3 24.1 0.00 0.00 0.00 74 1004.1
20260505024503 23 167 11.3 24.1 0.00 0.00 0.00 74 1003.8
20260505023624 23 169 11.3 27.4 0.00 0.00 0.00 74 1003.7
20260505022703 23 164 9.7 22.5 0.00 0.00 0.00 73 1003.6
20260505021825 23 166 11.3 22.5 0.00 0.00 0.00 73 1003.6
20260505020903 23 165 9.7 17.7 0.00 0.00 0.00 73 1003.7
20260505020003 23 162 11.3 25.7 0.00 0.00 0.00 73 1003.5
20260505015403 23 160 11.3 25.7 0.00 0.00 0.00 73 1003.6
20260505014503 23 162 11.3 24.1 0.00 0.00 0.00 73 1003.5
20260505013625 23 160 9.7 20.9 0.00 0.00 0.00 73 1003.6
20260505012704 24 162 11.3 27.4 0.00 0.00 0.00 72 1003.6
20260505011804 24 164 9.7 19.3 0.00 0.00 0.00 72 1003.5
20260505010903 24 161 11.3 30.6 0.00 0.00 0.00 71 1003.4
20260505010004 24 163 11.3 29.0 0.00 0.00 0.00 71 1003.4
20260505005403 24 164 11.3 29.0 0.00 0.00 0.00 71 1003.4
20260505004503 24 164 11.3 25.7 0.00 0.00 0.00 71 1003.6
20260505003603 24 166 11.3 24.1 0.00 0.00 0.00 70 1003.7
20260505002704 25 163 11.3 27.4 0.00 0.00 0.00 70 1003.8
20260505001803 25 164 9.7 29.0 0.00 0.00 0.00 69 1003.9
20260505000903 25 159 11.3 29.0 0.00 0.00 0.00 69 1004.0
20260505000003 25 166 11.3 25.7 0.00 0.00 0.00 68 1003.9
20260504235403 25 167 9.7 25.7 0.00 0.00 0.00 68 1004.1
20260504234504 25 164 12.9 25.7 0.00 0.00 0.00 68 1004.1
20260504233603 25 161 12.9 29.0 0.00 0.00 0.00 67 1004.1
20260504232724 25 167 12.9 29.0 0.00 0.00 0.00 66 1004.2
20260504231803 26 166 12.9 32.2 0.00 0.00 0.00 67 1004.3
20260504230903 26 166 12.9 29.0 0.00 0.00 0.00 65 1004.5
20260504230003 26 165 12.9 29.0 0.00 0.00 0.00 66 1004.5
20260504225404 26 165 12.9 29.0 0.00 0.00 0.00 66 1004.5
20260504224503 26 165 14.5 40.2 0.00 0.00 0.00 64 1004.5
20260504223604 26 164 12.9 29.0 0.00 0.00 0.00 64 1004.6
20260504222703 26 166 12.9 35.4 0.00 0.00 0.00 63 1004.7
20260504221824 26 164 12.9 33.8 0.00 0.00 0.00 63 1004.8
20260504220903 26 165 11.3 27.4 0.00 0.00 0.00 63 1004.8
20260504220004 26 173 12.9 27.4 0.00 0.00 0.00 62 1004.8
20260504215403 26 167 14.5 38.6 0.00 0.00 0.00 62 1004.8
20260504214503 27 169 14.5 33.8 0.00 0.00 0.00 61 1005.1
20260504213624 27 164 14.5 33.8 0.00 0.00 0.00 61 1005.1
20260504212703 27 166 14.5 33.8 0.00 0.00 0.00 61 1005.2
20260504211803 27 168 16.1 35.4 0.00 0.00 0.00 61 1005.4
20260504210903 27 165 12.9 35.4 0.00 0.00 0.00 60 1005.5
20260504210004 27 169 12.9 29.0 0.00 0.00 0.00 61 1005.8
20260504205404 27 164 16.1 35.4 0.00 0.00 0.00 61 1005.7
20260504204503 27 166 14.5 43.5 0.00 0.00 0.00 60 1005.8
20260504203603 27 171 12.9 30.6 0.00 0.00 0.00 60 1006.1
20260504202703 27 168 12.9 30.6 0.00 0.00 0.00 60 1006.2
20260504201803 27 167 14.5 30.6 0.00 0.00 0.00 61 1006.6
20260504200903 27 168 14.5 32.2 0.00 0.00 0.00 59 1006.6
20260504200003 27 169 14.5 32.2 0.00 0.00 0.00 61 1006.9
20260504195403 27 168 12.9 32.2 0.00 0.00 0.00 60 1007.0
20260504194503 27 171 12.9 27.4 0.00 0.00 0.00 62 1007.3
20260504193603 26 164 16.1 33.8 0.00 0.00 0.00 61 1007.5
20260504192725 26 169 12.9 35.4 0.00 0.00 0.00 61 1007.6
20260504191803 26 164 14.5 32.2 0.00 0.00 0.00 63 1007.5
20260504190903 26 166 12.9 32.2 0.00 0.00 0.00 62 1007.7
20260504190003 26 163 14.5 30.6 0.00 0.00 0.00 62 1007.9
20260504185403 26 167 11.3 30.6 0.00 0.00 0.00 61 1008.0
20260504184524 26 167 12.9 29.0 0.00 0.00 0.00 63 1008.0
20260504183624 26 164 14.5 37.0 0.00 0.00 0.00 62 1008.2
20260504182703 25 166 14.5 37.0 0.00 0.00 0.00 63 1008.3
20260504181803 25 170 14.5 33.8 0.00 0.00 0.00 62 1008.7
20260504180903 25 169 12.9 32.2 0.00 0.00 0.00 63 1008.8
20260504180003 25 175 14.5 35.4 0.00 0.00 0.00 64 1008.8
20260504175403 25 171 14.5 37.0 0.00 0.00 0.00 64 1008.9
20260504174503 25 170 14.5 37.0 0.00 0.00 0.00 64 1009.0
20260504173603 24 172 16.1 38.6 0.00 0.00 0.00 63 1009.0
20260504172704 24 183 14.5 33.8 0.00 0.00 0.00 65 1009.2
20260504171803 24 178 12.9 25.7 0.00 0.00 0.00 65 1009.4
20260504170903 23 181 14.5 33.8 0.00 0.00 0.00 65 1009.7
20260504150924 21 178 14.5 32.2 0.00 0.00 0.00 73 1010.7
20260504140903 18 172 14.5 32.2 0.00 0.00 0.00 77 1010.9